Pellston, MI

11:44 AM EST on January 20, 2017 (GMT -0500)
Pellston Regional Airport Of Emmet County

Weather History for KPLN - September, 2013

Change the Weather History Date:

Saturday, September 14, 2013

  Actual Average Record
Temperature  
Mean Temperature 48 °F -  
Max Temperature 66 °F 68 °F 84 °F (1952)
Min Temperature 32 °F 45 °F 27 °F (1963)
Degree Days  
Heating Degree Days 17    
Moisture  
Dew Point 43 °F    
Average Humidity 76    
Maximum Humidity 96    
Minimum Humidity 50    
Precipitation  
Precipitation 0.00 in - - ()
Sea Level Pressure  
Sea Level Pressure 30.10 in    
Wind  
Wind Speed 3 mph (SW)    
Max Wind Speed 18 mph    
Max Gust Speed 25 mph    
Visibility 10 miles    
Events      
Averages and records for this station are not official NWS values.
T = Trace of Precipitation, MM = Missing Value Source: NWS Daily Summary

Daily Weather History Graph

Daily Weather History Graph

Search for Another Location

Airport or City:

Trip Planner

Search our weather history database for the weather conditions in past years. The results will help you decide how hot, cold, wet, or windy it might be!

Date:

Astronomy

Sep. 14, 2013 Rise Set
Actual Time 7:16 AM EDT 7:51 PM EDT
Civil Twilight 6:46 AM EDT 8:21 PM EDT
Nautical Twilight 6:11 AM EDT 8:56 PM EDT
Astronomical Twilight 5:34 AM EDT 9:33 PM EDT
Moon 4:43 PM EDT (9/14) 1:35 AM EDT (9/14)
Length of Visible Light 13h 34m
Length of Day
12h 35m
Waxing Gibbous, 72% of the Moon is Illuminated
Sep 14
Waxing Gibbous
Sep 19
Full
Sep 26
Last Quarter
Oct 4
New
Oct 11
First Quarter

Hourly Weather History & Observations

Time (EDT) Temp. Dew Point Humidity Pressure Visibility Wind Dir Wind Speed Gust Speed Precip Events Conditions
12:54 AM 36.0 °F 34.0 °F 93% 30.16 in 10.0 mi Calm Calm - N/A   Clear
1:54 AM 35.1 °F 33.1 °F 92% 30.16 in 10.0 mi Calm Calm - N/A   Clear
2:54 AM 35.1 °F 33.1 °F 92% 30.16 in 10.0 mi Calm Calm - N/A   Clear
3:54 AM 34.0 °F 32.0 °F 92% 30.17 in 10.0 mi Calm Calm - N/A   Clear
4:54 AM 33.1 °F 30.9 °F 92% 30.16 in 10.0 mi Calm Calm - N/A   Clear
5:54 AM 32.0 °F 30.9 °F 96% 30.16 in 10.0 mi Calm Calm - N/A   Clear
6:54 AM 32.0 °F 30.0 °F 92% 30.16 in 10.0 mi Calm Calm - N/A   Clear
7:54 AM 34.0 °F 32.0 °F 92% 30.17 in 10.0 mi Calm Calm - N/A   Clear
8:54 AM 43.0 °F 39.9 °F 89% 30.16 in 10.0 mi Calm Calm - N/A   Clear
9:54 AM 53.1 °F 46.0 °F 77% 30.16 in 10.0 mi Calm Calm - N/A   Clear
10:54 AM 57.0 °F 48.0 °F 72% 30.15 in 10.0 mi WSW 9.2 mph - N/A   Overcast
11:02 AM 55.4 °F 48.2 °F 77% 30.13 in 10.0 mi SW 8.1 mph - N/A   Overcast
11:18 AM 57.2 °F 48.2 °F 72% 30.13 in 10.0 mi SSW 6.9 mph - N/A   Overcast
11:54 AM 60.1 °F 48.9 °F 67% 30.12 in 10.0 mi Variable 6.9 mph 18.4 mph N/A   Overcast
12:54 PM 63.0 °F 48.9 °F 60% 30.11 in 10.0 mi SW 10.4 mph 23.0 mph N/A   Mostly Cloudy
1:54 PM 63.0 °F 48.9 °F 60% 30.09 in 10.0 mi West 12.7 mph 18.4 mph N/A   Overcast
2:54 PM 63.0 °F 46.9 °F 56% 30.07 in 10.0 mi WSW 12.7 mph - N/A   Partly Cloudy
3:54 PM 64.9 °F 46.9 °F 52% 30.05 in 10.0 mi WSW 13.8 mph 20.7 mph N/A   Scattered Clouds
4:54 PM 64.0 °F 46.0 °F 52% 30.05 in 10.0 mi WSW 18.4 mph 25.3 mph N/A   Partly Cloudy
5:54 PM 64.0 °F 45.0 °F 50% 30.05 in 10.0 mi WSW 9.2 mph - N/A   Clear
6:54 PM 60.1 °F 48.0 °F 64% 30.05 in 10.0 mi WSW 4.6 mph - N/A   Clear
7:54 PM 57.0 °F 48.9 °F 74% 30.04 in 10.0 mi SSW 3.5 mph - N/A   Clear
8:54 PM 55.0 °F 48.9 °F 80% 30.03 in 10.0 mi SSW 3.5 mph - N/A   Clear
9:54 PM 55.0 °F 46.9 °F 74% 30.02 in 10.0 mi SSW 3.5 mph - N/A   Clear
10:54 PM 55.0 °F 46.9 °F 74% 30.02 in 10.0 mi SSE 3.5 mph - N/A   Clear
11:54 PM 57.0 °F 48.0 °F 72% 30.00 in 10.0 mi South 3.5 mph - N/A   Clear